Location: Kaikalui
(16.5250°N, 81.1500°E)
Time: 11:50:51
(UTC+00:00)

ARIANE 5 R/B - Pass Details

Date: 14 April 2026
Orbit: 251 x 27157 km, 5.9° (Epoch: 20 May)

Event Time Altitude Azimuth Distance (km) Brightness Sun altitude
Exits shadow 22:56:30 25° 236° (SW) 3,329 5.2 -20.4°
Maximum altitude 23:00:32 33° 198° (SSW) 1,891 4.2 -19.4°
Drops below altitude 10° 23:04:26 10° 131° (SE) 1,970 5.1 -18.6°
Sets 23:05:52 0° 118° (ESE) 2,476 5.9 -18.2°
